Dewpoint
51 51 51 51 51 51 51 50 51 52 52 52 52 52 52 52 52 51 46 49 46 41 41 40 41 41 42 39 35 39 35 33 34 32 31 30 30 32 32 34 30 30 30 29 31 31 33 38 40 36 37 38 38 37
51 51 51 51 51 50 51 51 51 52 52 52 52 52 53 52 52 51 44 51 50 45 42 44 45 45 46 46 42 41 38 37 38 35 34 34 32 33 32 29 37 33 34 33 34 34 40 40 41 40 41 40 40 38
51 51 51 51 51 50 50 51 52 52 52 52 52 52 52 52 53 50 47 49 47 42 38 38 39 45 47 47 48 40 41 42 40 41 37 35 32 34 31 32 35 37 38 35 34 37 38 40 40 41 43 43 42 42
51 51 51 51 50 50 50 51 52 52 52 52 52 52 52 52 53 50 45 45 43 38 33 36 41 42 45 45 45 46 45 44 41 38 36 35 34 37 33 34 36 38 38 36 35 38 40 40 42 42 44 44 45 44
50 50 51 51 50 50 51 51 52 52 52 52 52 52 52 52 53 49 45 47 44 41 36 36 39 41 43 43 44 44 42 40 39 37 35 33 36 35 37 36 35 40 38 36 35 40 41 41 44 46 45 45 45 45
50 50 51 51 50 50 51 51 52 52 53 53 53 52 53 52 52 51 42 45 46 44 40 36 39 41 42 43 42 40 42 40 38 37 35 36 38 37 32 33 39 40 42 42 40 42 43 42 43 43 44 45 45 45
50 50 51 51 51 50 51 51 51 52 52 52 52 51 52 52 47 44 40 44 48 44 39 40 39 43 43 42 40 40 38 38 39 38 36 36 36 37 33 33 40 41 41 40 42 41 40 42 42 44 45 46 47 46
50 50 51 51 51 50 50 51 50 52 52 52 51 51 51 50 48 44 45 49 46 41 39 38 40 43 45 40 39 38 36 37 38 38 39 37 37 36 33 37 41 41 42 40 39 41 41 42 42 42 43 46 45 45
50 50 50 51 51 50 50 51 51 52 52 51 51 51 48 45 43 45 48 48 46 42 36 40 37 40 44 42 42 38 36 37 38 37 37 37 33 33 36 38 40 42 41 40 39 40 41 40 41 41 42 43 44 45
50 50 50 51 51 50 51 52 52 52 51 51 48 46 43 45 49 48 45 44 44 43 40 39 40 41 43 42 42 40 40 36 35 39 41 35 33 38 39 40 41 43 43 42 37 38 39 40 40 41 41 41 42 44
49 50 50 51 51 50 51 52 52 50 49 45 45 45 45 50 46 47 44 42 39 40 39 38 40 38 44 42 42 42 38 38 33 35 36 34 30 35 39 39 41 43 43 42 42 41 41 41 41 41 40 41 41 41
49 49 50 50 51 50 52 52 51 47 46 47 46 47 45 45 43 40 34 35 36 36 39 39 42 44 42 44 40 41 40 38 30 36 33 25 34 37 38 38 39 41 42 42 42 41 41 41 40 41 41 41 41 42
49 49 50 50 51 52 52 52 51 50 49 47 46 43 45 40 27 28 24 29 30 32 36 38 39 43 43 42 43 42 36 32 35 31 32 31 35 38 37 38 37 39 42 42 41 41 41 41 41 41 40 41 42 41
49 49 50 50 51 52 52 52 52 51 46 44 44 34 34 29 31 31 31 31 33 34 34 35 40 40 40 39 35 32 34 32 28 27 27 33 35 37 38 38 35 37 39 41 41 41 41 41 40 41 41 41 41 41
49 49 50 51 51 51 51 51 52 49 47 44 41 29 32 33 33 34 34 33 34 35 35 41 36 36 34 32 32 30 29 25 26 27 33 36 37 38 38 38 35 36 35 40 41 40 40 41 41 41 41 42 41 41
49 49 51 51 51 51 51 52 49 49 48 46 44 36 34 31 31 32 33 32 33 35 36 34 32 29 31 31 29 30 28 23 29 34 36 35 36 38 38 38 36 36 35 34 42 41 40 39 40 40 41 42 41 41
49 47 51 50 50 51 51 49 49 48 46 42 38 37 34 33 33 33 34 33 34 30 30 31 29 29 29 28 28 31 29 30 33 33 32 33 35 38 39 39 38 35 34 36 39 41 41 41 40 40 38 39 39 42
45 46 48 49 49 49 50 49 49 48 42 40 37 38 38 36 34 34 36 36 31 31 32 28 32 28 27 27 27 29 32 33 32 31 31 34 34 32 31 31 38 33 35 35 34 37 38 39 38 34 29 30 33 34
46 47 49 50 49 47 48 50 48 40 40 40 39 39 39 38 43 45 42 37 35 35 34 31 29 27 28 31 31 31 33 32 30 32 33 33 32 32 31 32 34 33 30 29 28 27 29 33 29 27 28 28 27 28
49 51 52 51 50 48 49 49 47 42 40 40 40 40 38 41 45 45 45 43 39 39 35 36 31 31 32 33 34 33 33 33 32 28 29 32 34 30 29 29 31 31 27 27 28 30 28 28 28 29 28 28 28 29
49 52 51 50 49 49 49 48 43 44 43 41 40 43 43 47 47 44 41 40 40 41 39 37 36 36 41 39 36 34 34 34 33 32 32 32 34 27 28 29 29 31 27 26 26 27 29 27 28 28 28 29 30 31
48 52 51 51 50 51 49 50 44 42 42 41 44 45 44 43 43 44 46 44 42 39 40 41 42 46 45 40 37 37 37 36 36 32 33 32 27 27 27 27 28 28 29 28 27 26 27 27 27 28 29 30 32 32
51 51 51 53 49 41 41 46 39 42 40 43 43 42 43 44 44 47 42 43 44 46 46 46 47 48 45 41 39 38 39 38 28 26 27 27 27 27 26 26 27 28 28 29 30 28 27 31 32 29 31 31 30 31
51 51 49 47 45 40 44 40 45 45 43 40 40 40 42 43 44 41 39 42 44 45 43 45 47 40 39 40 41 43 39 31 27 27 27 27 25 25 25 25 25 26 28 29 29 29 29 31 33 31 32 31 31 31
43 39 39 32 41 41 38 41 42 41 39 41 41 41 41 42 39 38 38 41 42 43 45 45 43 41 37 37 34 33 31 27 26 25 27 27 26 24 24 25 26 27 28 29 29 29 30 31 32 32 32 32 31 30
39 45 38 40 41 39 40 37 40 41 41 40 42 43 43 40 38 36 40 41 42 44 45 44 42 40 38 36 30 28 27 31 27 26 27 27 26 24 23 24 24 26 28 27 30 31 31 31 31 31 31 30 32 32
39 42 42 44 42 44 43 46 46 42 41 40 43 41 41 36 35 38 42 43 44 46 46 45 43 40 35 31 32 33 31 29 29 27 28 27 26 27 27 31 30 27 29 30 30 30 31 30 30 29 29 31 31 32
46 46 42 43 44 46 43 44 42 41 42 45 42 39 38 36 36 40 43 45 47 46 44 41 33 32 28 29 28 28 30 29 28 28 28 28 29 31 37 32 31 35 30 30 31 32 32 32 31 30 30 31 31 31
46 49 46 42 44 45 44 43 43 44 46 44 41 41 41 43 44 45 46 46 45 45 38 34 31 29 27 27 27 27 28 28 28 27 27 27 27 32 30 31 35 39 31 31 33 33 32 33 33 33 33 32 31 31
41 46 43 42 42 42 45 46 45 47 47 47 46 44 43 44 47 45 36 31 34 37 30 28 27 27 25 24 22 23 26 27 27 27 26 26 26 28 30 34 38 35 37 36 31 31 33 32 31 30 30 30 30 31
46 46 42 43 41 44 47 47 47 48 48 47 45 42 42 43 43 37 33 30 27 27 28 27 27 27 24 22 22 22 23 27 28 28 27 27 28 29 31 33 36 40 39 37 33 30 29 29 29 29 29 31 31 32
45 43 43 40 42 45 44 43 44 44 45 45 44 45 44 44 40 39 37 29 27 26 31 29 28 28 28 25 25 27 30 27 27 27 27 27 29 31 34 34 35 36 35 35 35 34 31 30 30 30 30 30 31 31
44 44 43 42 42 41 42 43 42 43 44 43 44 45 44 43 38 36 36 33 28 27 28 29 27 26 26 27 28 29 30 29 32 34 34 33 33 32 33 33 34 33 32 31 31 31 31 31 30 31 31 31 31 30
Lifted_Index
8 8 7 7 8 7 7 6 6 6 6 6 7 8 7 7 7 8 8 8 8 7 7 6 6 5 4 4 2 2 3 3 3 2 2 2 2 2 2 2 3 3 2 3 3 2 2 3 3 3 5 6 5 5
8 7 7 7 7 7 6 6 6 6 6 6 7 7 7 7 7 8 8 8 7 7 6 6 5 5 5 4 3 3 3 4 3 3 3 3 2 2 2 2 3 3 3 3 3 4 4 5 5 5 6 6 6 6
7 7 7 7 7 6 6 6 6 6 6 6 7 7 7 7 7 7 7 7 7 6 5 5 5 5 5 5 4 4 4 5 5 4 4 4 3 3 3 3 3 4 4 4 4 5 6 6 6 6 7 7 7 8
7 7 7 7 6 6 6 6 6 6 6 6 6 6 6 7 7 7 7 7 6 5 4 4 4 4 5 5 4 4 5 5 5 5 5 4 5 5 5 5 5 5 5 5 5 6 7 7 7 6 7 7 8 8
7 7 7 7 6 5 5 5 5 5 5 5 5 5 6 6 6 6 6 6 6 5 3 3 3 4 4 4 4 4 4 5 5 5 5 5 6 6 6 7 7 6 6 6 6 7 8 8 7 7 6 7 7 8
7 6 7 7 6 5 5 4 5 5 5 5 5 5 5 5 5 4 4 4 5 4 3 2 2 3 3 3 3 3 3 4 4 4 5 5 6 6 7 8 8 8 8 8 8 8 8 8 8 7 7 7 7 8
7 6 6 7 6 5 4 4 4 4 4 4 5 4 4 4 4 3 3 4 5 4 2 1 1 1 2 2 2 2 3 3 4 4 5 5 6 6 8 8 8 8 9 9 9 9 8 8 8 8 8 8 8 8
6 6 6 6 6 5 5 4 4 3 3 3 4 3 3 3 2 2 3 4 4 3 1 0 0 1 1 1 1 2 3 3 4 4 5 5 6 6 7 7 7 7 8 9 9 9 9 9 9 8 8 9 8 8
6 6 6 6 6 5 5 4 3 3 3 3 2 2 2 2 2 2 3 4 3 2 1 1 1 0 0 1 1 2 2 3 3 4 5 5 6 6 6 7 6 6 7 8 9 10 10 10 9 9 9 9 9 9
6 6 6 6 6 5 5 4 3 3 2 2 1 1 1 1 2 2 2 2 2 1 1 1 1 1 1 1 1 1 2 2 3 4 4 5 6 6 7 7 6 6 7 8 9 10 10 10 10 9 9 9 9 9
6 6 6 5 5 5 4 4 3 3 2 2 1 1 1 1 1 1 2 2 1 1 1 1 1 1 1 1 1 1 2 2 3 3 4 5 6 6 7 7 7 6 7 8 9 10 10 11 11 11 11 10 10 10
6 6 6 5 5 4 4 4 3 3 2 2 1 1 1 1 1 2 2 2 2 2 2 2 1 1 0 1 1 1 1 2 3 4 4 5 5 6 6 7 7 7 7 7 9 10 11 11 12 12 12 12 12 12
6 6 6 5 4 3 4 4 3 3 2 1 1 1 1 1 2 2 3 3 3 3 2 2 1 0 0 0 1 1 2 2 3 4 4 5 5 5 6 6 7 7 6 7 8 9 10 11 12 13 13 13 13 12
6 6 5 5 3 3 3 4 3 3 2 1 1 1 1 1 2 2 2 3 3 3 2 1 1 1 1 1 2 2 3 3 3 4 4 4 4 4 5 6 6 6 6 6 6 7 9 10 11 12 12 13 13 12
6 5 5 4 3 3 4 3 3 2 1 1 1 1 1 1 1 1 2 2 3 3 2 1 1 2 2 2 3 3 4 4 4 4 4 4 4 4 5 5 6 6 6 6 5 6 7 8 9 10 11 12 12 12
6 5 4 4 4 4 4 3 2 1 1 1 1 1 1 1 1 1 1 2 3 3 3 2 3 3 3 3 4 4 4 4 4 4 4 4 4 4 4 4 5 5 6 5 5 5 6 7 7 8 9 10 11 11
6 5 5 4 4 4 4 3 2 1 1 1 1 1 1 1 1 1 1 1 2 3 3 3 3 3 3 3 4 4 4 4 5 5 5 4 4 4 4 4 4 5 5 5 5 5 5 6 6 7 8 9 10 10
6 6 5 5 4 4 3 2 1 1 1 1 1 1 1 1 0 0 0 1 2 3 3 3 3 3 2 3 3 4 4 5 5 5 5 4 4 4 4 4 4 4 4 4 5 5 6 6 7 7 8 9 9 10
6 5 4 3 3 3 2 0 -0 0 1 1 1 1 0 0 -0 -0 0 1 1 2 2 3 3 2 2 3 3 4 4 5 5 5 5 4 5 5 4 4 4 4 4 4 4 5 6 6 7 7 8 8 9 9
4 3 2 2 2 2 1 -0 -0 0 1 1 1 0 0 -0 -0 -0 -0 0 1 1 1 2 3 3 3 3 4 4 4 4 4 4 4 5 5 5 5 4 4 4 4 4 4 5 6 6 7 7 8 8 8 8
2 2 1 1 1 1 0 -0 0 0 0 0 0 -0 -0 -0 -0 -0 0 1 1 1 1 2 3 3 3 4 4 4 3 3 3 4 4 5 5 5 5 5 4 4 4 4 5 5 5 6 6 7 7 8 8 8
1 1 1 1 0 -0 -0 -0 0 0 0 0 -0 -0 -1 -0 0 0 1 1 1 1 1 2 2 3 3 3 3 3 3 3 3 3 4 4 5 5 5 5 4 4 4 4 4 5 5 6 6 7 7 7 8 8
1 0 0 -0 -1 -1 -0 0 0 0 0 -0 -0 -0 -0 0 1 1 1 1 1 1 1 1 1 2 2 2 2 2 2 2 2 2 3 4 5 5 5 5 5 4 4 4 4 4 5 5 6 6 7 7 7 7
1 1 0 -0 -0 -0 0 0 0 -0 0 0 0 0 1 1 2 2 1 1 1 1 1 1 0 1 1 1 1 1 1 1 2 2 3 4 4 4 5 5 5 5 5 4 4 4 4 5 5 6 6 6 7 7
2 2 1 1 1 0 0 0 0 0 0 0 1 1 1 1 2 2 1 0 0 0 0 0 0 0 0 1 1 1 2 2 2 3 3 4 4 4 4 4 5 5 5 5 4 4 4 4 5 5 5 6 6 7
2 2 2 1 1 0 0 -0 -0 0 0 0 0 1 1 1 2 2 1 0 0 -0 -0 -0 -0 0 0 1 1 2 3 3 3 3 4 4 4 4 4 3 3 4 4 4 4 4 4 4 4 5 5 5 6 6
2 1 1 0 -0 -0 -0 -0 -0 -0 -0 0 0 1 1 2 2 1 1 0 0 -0 -0 0 0 0 1 1 2 3 3 3 4 4 4 4 4 4 3 3 2 3 3 4 4 4 3 4 4 4 5 5 6 6
1 1 0 -0 -0 -1 -1 -1 -1 -0 -0 -0 0 1 2 2 2 1 1 1 1 0 0 0 1 1 2 3 4 4 5 5 5 5 5 5 4 4 3 3 2 2 2 3 3 3 3 3 4 4 5 5 5 5
1 0 -0 -0 -1 -1 -1 -1 -1 -0 -0 -0 0 1 2 2 2 2 2 2 2 1 1 1 2 3 4 5 6 6 6 6 6 6 6 5 5 4 4 4 3 2 2 3 3 3 3 3 4 4 5 5 5 5
0 -0 -0 -1 -1 -1 -1 -1 -1 -0 -0 -0 0 1 2 2 2 2 3 3 3 3 3 3 4 4 5 6 7 7 8 8 8 8 7 7 6 6 5 5 4 4 4 4 4 4 4 4 4 5 5 5 5 5
-0 -0 -1 -1 -1 -1 -1 -1 -1 -0 -0 0 1 2 2 2 2 2 3 3 4 4 4 5 5 5 6 6 7 8 9 9 9 10 9 9 8 8 7 6 6 5 5 5 5 5 5 5 5 6 6 6 6 6
-1 -1 -1 -1 -1 -1 -1 -0 -0 -0 0 0 1 1 2 1 1 2 3 4 4 5 5 5 6 6 7 8 9 9 10 10 11 11 11 10 9 9 8 8 7 7 7 6 6 6 6 6 6 7 7 6 7 7
-1 -1 -1 -1 -1 -1 -0 -0 -0 0 0 0 1 1 1 1 1 2 4 5 5 5 5 6 6 7 8 9 9 10 10 11 11 11 11 11 10 9 9 9 8 8 8 7 7 7 7 7 7 7 7 7 7 7